Satellite-Ground Cal/Val Region Overpasses Predictions

Prediction of Satellite NPP Overpassing Cal/Val Region: PacNW

Region Location: (Latitude: 10.00, Longitude: 139.50) to (Latitude: 22.70, Longitude: 165.60).

Table of predicted overpasses for the next 14.0 days since TLE Epoch: 6/22/2018
Interval Starting Time Starting Location Ending Time Ending Location
1 06/23/2018 02:32:49 ( 10.01, 161.53) 06/23/2018 02:36:25 ( 22.69, 158.51)
2 06/23/2018 15:04:42 ( 22.70, 158.78) 06/23/2018 15:08:18 ( 10.02, 155.76)
3 06/24/2018 02:14:39 ( 13.04, 165.59) 06/24/2018 02:17:23 ( 22.66, 163.28)
4 06/24/2018 03:55:18 ( 10.05, 140.91) 06/24/2018 03:57:01 ( 16.10, 139.50)
5 06/24/2018 14:45:41 ( 22.67, 163.53) 06/24/2018 14:49:16 ( 10.04, 160.52)
6 06/25/2018 03:36:15 ( 10.02, 145.67) 06/25/2018 03:39:50 ( 22.64, 142.67)
7 06/25/2018 14:29:50 ( 11.42, 165.60) 06/25/2018 14:30:14 ( 10.01, 165.27)
8 06/25/2018 16:08:08 ( 22.68, 142.92) 06/25/2018 16:11:44 ( 10.00, 139.90)
9 06/26/2018 03:17:14 ( 10.06, 150.43) 06/26/2018 03:20:49 ( 22.68, 147.42)
10 06/26/2018 15:49:07 ( 22.65, 147.67) 06/26/2018 15:52:42 ( 10.03, 144.66)
11 06/27/2018 02:58:11 ( 10.03, 155.19) 06/27/2018 03:01:46 ( 22.65, 152.19)
12 06/27/2018 15:30:04 ( 22.68, 152.43) 06/27/2018 15:33:39 ( 10.06, 149.43)
13 06/28/2018 02:39:09 ( 10.00, 159.96) 06/28/2018 02:42:45 ( 22.68, 156.94)
14 06/28/2018 15:11:03 ( 22.64, 157.18) 06/28/2018 15:14:38 ( 10.02, 154.18)
15 06/29/2018 02:20:07 ( 10.04, 164.71) 06/29/2018 02:23:42 ( 22.66, 161.70)
16 06/29/2018 14:52:00 ( 22.67, 161.95) 06/29/2018 14:55:35 ( 10.05, 158.94)
17 06/30/2018 03:42:35 ( 10.02, 144.10) 06/30/2018 03:46:11 ( 22.70, 141.08)
18 06/30/2018 14:34:16 ( 18.12, 165.59) 06/30/2018 14:36:34 ( 10.01, 163.70)
19 06/30/2018 16:14:28 ( 22.69, 141.34) 06/30/2018 16:16:37 ( 15.12, 139.50)
20 07/01/2018 03:23:34 ( 10.05, 148.85) 07/01/2018 03:27:09 ( 22.68, 145.84)
21 07/01/2018 15:55:26 ( 22.65, 146.09) 07/01/2018 15:59:01 ( 10.03, 143.09)
22 07/02/2018 03:04:31 ( 10.03, 153.61) 07/02/2018 03:08:06 ( 22.65, 150.61)
23 07/02/2018 15:36:24 ( 22.68, 150.86) 07/02/2018 15:39:59 ( 10.06, 147.85)
24 07/03/2018 02:45:29 ( 10.00, 158.38) 07/03/2018 02:49:05 ( 22.69, 155.36)
25 07/03/2018 15:17:22 ( 22.64, 155.61) 07/03/2018 15:20:57 ( 10.02, 152.60)
26 07/04/2018 02:26:27 ( 10.04, 163.13) 07/04/2018 02:30:02 ( 22.66, 160.12)
27 07/04/2018 14:58:20 ( 22.67, 160.37) 07/04/2018 15:01:55 ( 10.05, 157.37)
28 07/05/2018 02:10:12 ( 19.82, 165.59) 07/05/2018 02:11:01 ( 22.70, 164.88)
29 07/05/2018 03:48:55 ( 10.02, 142.52) 07/05/2018 03:52:30 ( 22.64, 139.51)
30 07/05/2018 14:39:17 ( 22.69, 165.14) 07/05/2018 14:42:53 ( 10.01, 162.12)
31 07/05/2018 16:20:47 ( 22.68, 139.76) 07/05/2018 16:21:04 ( 21.69, 139.51)
32 07/06/2018 03:29:53 ( 10.06, 147.27) 07/06/2018 03:33:28 ( 22.68, 144.26)


NCC Satellite Cal/Val Overpasses Prediction Service
